Regional Weather Roundup
Issued by NWS

Home | Current Version | Previous Version | Graphics & Text | Print | Product List | Glossary Off
Versions: 1 2 3 4 5 6 7 8 9 10 11 12 13 14 15 16 17 18 19 20 21 22 23 24 25 26 27 28 29 30 31 32 33 34 35 36 37 38 39 40 41 42 43 44 45 46 47 48 49 50

000
ASUS43 KDMX 250507
RWRIA

WEATHER ROUNDUP FOR IOWA
NATIONAL WEATHER SERVICE DES MOINES IA
1200 AM CDT FRI JUL 25 2014

NOTE: "FAIR" INDICATES FEW OR NO CLOUDS BELOW 12,000 FEET WITH NO
SIGNIFICANT WEATHER AND/OR OBSTRUCTIONS TO VISIBILITY.

* - THESE STATIONS ARE NOT NWS STATIONS...THUS NOT UNDER NWS
QUALITY CONTROL.  THEY ALSO DO NOT REPORT WEATHER SUCH
AS PRECIPITATION OR FOG.

IAZ001>003-012>014-020>022-031>034-043>046-250600-
   NORTHWEST IOWA

CITY           SKY/WX    TMP DP  RH WIND       PRES   REMARKS
CARROLL *      CLOUDY    68  61  77 S10       29.90S
CHEROKEE *     MOCLDY    70  63  78 S12       29.85F
DENISON *      PTCLDY    70  61  73 S15G23    29.85F
LE MARS *      PTCLDY    72  63  73 S14G21    29.82F
ORANGE CITY *  PTCLDY    70  59  68 S12G18    29.82F
SHELDON *      CLOUDY    66  63  88 SE9       29.83F
SIOUX CITY     CLOUDY    74  61  63 S14       29.83F
SPENCER        PTCLDY    65  61  87 SE10      29.89S
STORM LAKE *   MOCLDY    68  63  83 S14       29.89F
$$

IAZ055>058-069>071-079>083-090>094-250600-
   SOUTHWEST IOWA

CITY           SKY/WX    TMP DP  RH WIND       PRES   REMARKS
ATLANTIC *     CLOUDY    70  61  73 S15       29.88F
AUDUBON *      CLEAR     72  64  78 S10       29.90F
CLARINDA *     CLEAR     70  61  73 S10       29.93S
COUNCIL BLFS *   N/A     70  63  78 S16G24    29.87F
CRESTON *      CLEAR     68  61  77 S16G22    29.92S
HARLAN  *      CLEAR     70  61  73 S12G21    29.91S
LAMONI         PTCLDY    68  59  73 S13       29.94F
RED OAK *      PTCLDY    72  61  68 S13G21    29.88F
SHENANDOAH *   CLEAR     72  63  73 SE15G22   29.89F
$$

IAZ047>049-059>061-072>074-084-250600-
   CENTRAL IOWA

CITY           SKY/WX    TMP DP  RH WIND       PRES   REMARKS
AMES           CLEAR     63  60  90 SE5       29.95R
ANKENY *       CLEAR     66  61  82 CALM      29.95R
CHARITON *     CLEAR     70  59  68 S10G17    29.95R
DES MOINES     PTCLDY    70  59  68 S6        29.95R
GRINNELL*      CLEAR     64  59  82 SE8       29.98S
KNOXVILLE *    CLEAR     66  59  77 E7        29.95R
MARSHALLTOWN   CLEAR     65  60  84 SE12      29.96S
PELLA *        CLEAR     65  58  80 SE7       29.98S
PERRY *          N/A     64  61  88 SE6       29.93R
$$

IAZ004>006-015-016-023>025-035-036-250600-
   NORTH CENTRAL IOWA

CITY           SKY/WX    TMP DP  RH WIND       PRES   REMARKS
ALGONA *       CLOUDY    64  63  94 SE8       29.94S
CLARION *      PTCLDY    64  63  94 SE8       29.95S
ESTHERVILLE    CLOUDY    62  60  93 SE9       29.91F
FORT DODGE *   CLEAR     63  59  88 SE5       29.94S
MASON CITY     PTCLDY    64  62  93 SE8       29.99R
FOREST CITY *  MOCLDY    63  63 100 E6        29.97S
IOWA FALLS *     N/A     63  61  94 SE6       29.98R
$$

IAZ007>011-017>019-026>030-037>042-050>054-066-250600-
   NORTHEAST IOWA

CITY           SKY/WX    TMP DP  RH WIND       PRES   REMARKS
CEDAR RAPIDS   CLEAR     64  58  80 SE3       30.01R
CHARLES CITY * MOCLDY    64  61  88 E6        30.01R
CLINTON *      CLEAR     63  55  77 S5        30.05R
DECORAH *      PTCLDY    63  59  88 S5        30.02R
DUBUQUE        CLEAR     59  57  93 S5        30.04R
MONTICELLO *   CLEAR     61  59  94 CALM      30.02R
OELWEIN *      CLEAR     63  59  88 SE6       30.03R
WATERLOO       CLEAR     67  59  75 SE9       29.99R
$$

IAZ064-065-067-068-078-250600-
   EAST CENTRAL IOWA

CITY           SKY/WX    TMP DP  RH WIND       PRES   REMARKS
DAVENPORT      CLEAR     63  55  75 S8        30.02R
IOWA CITY      CLEAR     64  60  87 SE5       30.02R
MT. PLEASANT * CLEAR     64  57  77 SE6       30.00S
MUSCATINE *    CLEAR     64  59  82 CALM      30.02R
QUAD CITIES    CLEAR     62  56  80 SE6       30.02R
$$

IAZ062-063-075>077-085>089-095>099-250600-
   SOUTHEAST IOWA

CITY           SKY/WX    TMP DP  RH WIND       PRES   REMARKS
BURLINGTON     CLEAR     67  57  70 SE7       30.01S
FAIRFIELD *    CLEAR     63  57  82 SE5       30.01R
FORT MADISON * CLEAR     66  61  82 SE5       30.02S
KEOKUK *       CLEAR     66  59  77 SE6       30.00R
OSKALOOSA *      N/A     63  59  88 SE8       29.99S
CENTERVILLE *  CLEAR     64  59  82 SE6       29.99R
OTTUMWA        CLEAR     62  58  86 E6        29.98S
WASHINGTON *   CLEAR     63  59  88 SE5       30.01R
$$

ABBREVIATIONS USED IN REMARKS
   TC - TEMPERATURES IN CELSIUS
  WCI - WIND CHILL INDEX
   HX - HEAT INDEX
  VSB - VISIBILITY
$$



USA.gov is the U.S. government's official web portal to all federal, state and local government web resources and services.